| time (UTC) | temp C | wind direction | speed KPH | gust KPH | rain 1hr cm | rain 24hr cm | rain mn cm | humidity % | barometer mb |
| 20260505023100 | 15 | 84 | 6.4 | 9.7 | 0.00 | 0.00 | 0.00 | 46 | 1003.5 |
| 20260505022518 | 16 | 84 | 4.8 | 6.4 | 0.00 | 0.00 | 0.00 | 45 | 1003.7 |
| 20260505022016 | 16 | 83 | 4.8 | 9.7 | 0.00 | 0.00 | 0.00 | 45 | 1003.6 |
| 20260505021534 | 17 | 98 | 4.8 | 6.4 | 0.00 | 0.00 | 0.00 | 43 | 1003.5 |
| 20260505021052 | 17 | 102 | 3.2 | 4.8 | 0.00 | 0.00 | 0.00 | 41 | 1003.5 |
| 20260505020531 | 18 | 102 | 3.2 | 4.8 | 0.00 | 0.00 | 0.00 | 40 | 1003.4 |
| 20260505020029 | 18 | 102 | 3.2 | 4.8 | 0.00 | 0.00 | 0.00 | 40 | 1003.4 |
| 20260505015527 | 19 | 90 | 3.2 | 9.7 | 0.00 | 0.00 | 0.00 | 33 | 1002.7 |
| 20260505015026 | 19 | 57 | 1.6 | 4.8 | 0.00 | 0.00 | 0.00 | 32 | 1000.7 |
| 20260505014524 | 20 | 57 | 1.6 | 3.2 | 0.00 | 0.00 | 0.00 | 32 | 1003.6 |
| 20260505014022 | 20 | 57 | 1.6 | 3.2 | 0.00 | 0.00 | 0.00 | 31 | 1003.6 |
| 20260505013520 | 20 | 57 | 3.2 | 4.8 | 0.00 | 0.00 | 0.00 | 32 | 1003.5 |
| 20260505013019 | 20 | 57 | 1.6 | 3.2 | 0.00 | 0.00 | 0.00 | 33 | 1003.5 |
| 20260505012517 | 20 | 57 | 0.0 | 1.6 | 0.00 | 0.00 | 0.00 | 35 | 1003.6 |
| 20260505012016 | 20 | 57 | 1.6 | 3.2 | 0.00 | 0.00 | 0.00 | 35 | 1003.6 |
| 20260505011534 | 20 | 57 | 1.6 | 3.2 | 0.00 | 0.00 | 0.00 | 33 | 1003.7 |
| 20260505011032 | 20 | 57 | 1.6 | 3.2 | 0.00 | 0.00 | 0.00 | 31 | 1003.7 |
| 20260505010530 | 19 | 57 | 1.6 | 3.2 | 0.00 | 0.00 | 0.00 | 35 | 1003.9 |
| 20260505010029 | 19 | 57 | 0.0 | 1.6 | 0.00 | 0.00 | 0.00 | 33 | 1003.8 |
| 20260505005547 | 19 | 57 | 1.6 | 4.8 | 0.00 | 0.00 | 0.00 | 34 | 1003.9 |
| 20260505005025 | 19 | 57 | 1.6 | 3.2 | 0.00 | 0.00 | 0.00 | 34 | 1004.0 |
| 20260505004605 | 18 | 57 | 3.2 | 4.8 | 0.00 | 0.00 | 0.00 | 32 | 1003.9 |
| 20260505004022 | 18 | 57 | 1.6 | 3.2 | 0.00 | 0.00 | 0.00 | 34 | 1003.8 |
| 20260505003520 | 18 | 57 | 1.6 | 3.2 | 0.00 | 0.00 | 0.00 | 33 | 1004.0 |
| 20260505003039 | 18 | 57 | 3.2 | 6.4 | 0.00 | 0.00 | 0.00 | 32 | 1004.0 |
| 20260505002517 | 19 | 55 | 3.2 | 6.4 | 0.00 | 0.00 | 0.00 | 32 | 1004.2 |
| 20260505002056 | 19 | 65 | 8.0 | 11.3 | 0.00 | 0.00 | 0.00 | 33 | 1004.1 |
| 20260505001534 | 19 | 42 | 4.8 | 11.3 | 0.00 | 0.00 | 0.00 | 31 | 1004.1 |
| 20260505001033 | 19 | 64 | 6.4 | 12.9 | 0.00 | 0.00 | 0.00 | 33 | 1004.1 |
| 20260505000531 | 20 | 63 | 6.4 | 11.3 | 0.00 | 0.00 | 0.00 | 31 | 1004.2 |
| 20260505000029 | 20 | 8 | 4.8 | 9.7 | 0.00 | 0.00 | 0.00 | 31 | 1004.3 |
| 20260504235527 | 21 | 5 | 6.4 | 11.3 | 0.00 | 0.00 | 0.00 | 30 | 1004.3 |
| 20260504235026 | 21 | 4 | 8.0 | 14.5 | 0.00 | 0.00 | 0.00 | 30 | 1004.3 |
| 20260504234524 | 21 | 4 | 9.7 | 24.1 | 0.00 | 0.00 | 0.00 | 31 | 1004.2 |
| 20260504234023 | 20 | 7 | 9.7 | 20.9 | 0.00 | 0.00 | 0.00 | 31 | 1004.3 |
| 20260504233521 | 19 | 11 | 9.7 | 20.9 | 0.00 | 0.00 | 0.00 | 34 | 1004.4 |
| 20260504233019 | 18 | 19 | 11.3 | 24.1 | 0.00 | 0.00 | 0.00 | 35 | 1004.4 |
| 20260504232517 | 18 | 13 | 14.5 | 29.0 | 0.00 | 0.00 | 0.00 | 35 | 1001.8 |
| 20260504232016 | 18 | 10 | 19.3 | 35.4 | 0.00 | 0.00 | 0.00 | 35 | 1004.0 |
| 20260504231535 | 19 | 13 | 11.3 | 24.1 | 0.00 | 0.00 | 0.00 | 35 | 1004.3 |
| 20260504231033 | 20 | 4 | 16.1 | 33.8 | 0.00 | 0.00 | 0.00 | 34 | 1004.3 |
| 20260504230532 | 21 | 5 | 12.9 | 27.4 | 0.00 | 0.00 | 0.00 | 32 | 1004.4 |
| 20260504230050 | 22 | 330 | 14.5 | 30.6 | 0.00 | 0.00 | 0.00 | 29 | 1004.3 |
| 20260504225528 | 23 | 315 | 9.7 | 20.9 | 0.00 | 0.00 | 0.00 | 26 | 1004.1 |
| 20260504225046 | 24 | 270 | 8.0 | 17.7 | 0.00 | 0.00 | 0.00 | 23 | 1004.0 |
| 20260504224524 | 26 | 262 | 8.0 | 16.1 | 0.00 | 0.00 | 0.00 | 21 | 1004.1 |
| 20260504224023 | 26 | 305 | 6.4 | 22.5 | 0.00 | 0.00 | 0.00 | 22 | 1003.9 |
| 20260504223521 | 26 | 274 | 9.7 | 20.9 | 0.00 | 0.00 | 0.00 | 22 | 1003.7 |
| 20260504223100 | 26 | 256 | 8.0 | 16.1 | 0.00 | 0.00 | 0.00 | 22 | 1003.8 |
| 20260504222518 | 26 | 271 | 1.6 | 9.7 | 0.00 | 0.00 | 0.00 | 22 | 1003.8 |
| 20260504222016 | 26 | 263 | 4.8 | 11.3 | 0.00 | 0.00 | 0.00 | 22 | 1004.0 |
| 20260504221535 | 26 | 249 | 6.4 | 11.3 | 0.00 | 0.00 | 0.00 | 24 | 1004.0 |
| 20260504221033 | 26 | 240 | 6.4 | 14.5 | 0.00 | 0.00 | 0.00 | 24 | 1004.0 |
| 20260504220531 | 26 | 280 | 4.8 | 11.3 | 0.00 | 0.00 | 0.00 | 23 | 1004.1 |
| 20260504220050 | 26 | 286 | 4.8 | 6.4 | 0.00 | 0.00 | 0.00 | 23 | 1004.2 |
| 20260504215528 | 27 | 252 | 8.0 | 14.5 | 0.00 | 0.00 | 0.00 | 24 | 1003.6 |
| 20260504215107 | 27 | 223 | 6.4 | 9.7 | 0.00 | 0.00 | 0.00 | 26 | 1004.5 |
| 20260504214545 | 27 | 208 | 1.6 | 9.7 | 0.00 | 0.00 | 0.00 | 24 | 1004.5 |
| 20260504214023 | 27 | 201 | 3.2 | 6.4 | 0.00 | 0.00 | 0.00 | 23 | 1004.5 |
| 20260504213522 | 27 | 344 | 4.8 | 6.4 | 0.00 | 0.00 | 0.00 | 26 | 1004.6 |
| 20260504213020 | 27 | 344 | 4.8 | 6.4 | 0.00 | 0.00 | 0.00 | 24 | 1004.7 |
| 20260504212518 | 27 | 295 | 3.2 | 6.4 | 0.00 | 0.00 | 0.00 | 23 | 1004.9 |
| 20260504212017 | 27 | 285 | 4.8 | 6.4 | 0.00 | 0.00 | 0.00 | 23 | 1004.8 |
| 20260504211535 | 26 | 269 | 6.4 | 6.4 | 0.00 | 0.00 | 0.00 | 24 | 1005.0 |
| 20260504211033 | 26 | 256 | 6.4 | 11.3 | 0.00 | 0.00 | 0.00 | 24 | 1005.0 |
| 20260504210532 | 26 | 283 | 4.8 | 11.3 | 0.00 | 0.00 | 0.00 | 26 | 1005.1 |
| 20260504210030 | 26 | 306 | 4.8 | 11.3 | 0.00 | 0.00 | 0.00 | 26 | 1005.0 |
| 20260504205529 | 26 | 289 | 6.4 | 12.9 | 0.00 | 0.00 | 0.00 | 26 | 1005.2 |
| 20260504205027 | 26 | 247 | 1.6 | 6.4 | 0.00 | 0.00 | 0.00 | 25 | 1005.2 |
| 20260504204525 | 26 | 233 | 4.8 | 11.3 | 0.00 | 0.00 | 0.00 | 26 | 1005.3 |
| 20260504204044 | 26 | 268 | 6.4 | 16.1 | 0.00 | 0.00 | 0.00 | 26 | 1005.3 |
| 20260504203522 | 26 | 289 | 6.4 | 16.1 | 0.00 | 0.00 | 0.00 | 26 | 1003.0 |
| 20260504203020 | 26 | 284 | 4.8 | 14.5 | 0.00 | 0.00 | 0.00 | 26 | 1005.5 |
| 20260504202539 | 25 | 299 | 4.8 | 14.5 | 0.00 | 0.00 | 0.00 | 26 | 1005.5 |
| 20260504202016 | 25 | 245 | 6.4 | 11.3 | 0.00 | 0.00 | 0.00 | 26 | 1005.5 |
| 20260504201535 | 26 | 282 | 6.4 | 12.9 | 0.00 | 0.00 | 0.00 | 26 | 1005.7 |
| 20260504201034 | 26 | 295 | 3.2 | 9.7 | 0.00 | 0.00 | 0.00 | 27 | 1005.8 |
| 20260504200532 | 25 | 284 | 6.4 | 12.9 | 0.00 | 0.00 | 0.00 | 27 | 1005.8 |
| 20260504200030 | 25 | 278 | 6.4 | 14.5 | 0.00 | 0.00 | 0.00 | 27 | 1005.8 |
| 20260504195529 | 25 | 287 | 4.8 | 12.9 | 0.00 | 0.00 | 0.00 | 28 | 1005.8 |
| 20260504195027 | 25 | 274 | 8.0 | 14.5 | 0.00 | 0.00 | 0.00 | 27 | 1003.3 |
| 20260504194525 | 25 | 270 | 3.2 | 11.3 | 0.00 | 0.00 | 0.00 | 25 | 1005.9 |
| 20260504194024 | 25 | 295 | 4.8 | 11.3 | 0.00 | 0.00 | 0.00 | 26 | 1005.9 |
| 20260504193542 | 25 | 292 | 8.0 | 16.1 | 0.00 | 0.00 | 0.00 | 28 | 1006.1 |
| 20260504193040 | 25 | 282 | 6.4 | 16.1 | 0.00 | 0.00 | 0.00 | 28 | 1006.2 |
| 20260504192539 | 25 | 263 | 4.8 | 17.7 | 0.00 | 0.00 | 0.00 | 27 | 1006.2 |
| 20260504192017 | 25 | 300 | 4.8 | 12.9 | 0.00 | 0.00 | 0.00 | 27 | 1006.4 |
| 20260504191516 | 25 | 277 | 6.4 | 12.9 | 0.00 | 0.00 | 0.00 | 28 | 1006.3 |
| 20260504191034 | 25 | 276 | 3.2 | 9.7 | 0.00 | 0.00 | 0.00 | 27 | 1006.4 |
| 20260504190532 | 25 | 284 | 4.8 | 14.5 | 0.00 | 0.00 | 0.00 | 27 | 1006.0 |
| 20260504190031 | 25 | 279 | 3.2 | 9.7 | 0.00 | 0.00 | 0.00 | 27 | 1003.6 |
| 20260504185529 | 25 | 278 | 4.8 | 9.7 | 0.00 | 0.00 | 0.00 | 26 | 1006.7 |
| 20260504185047 | 25 | 308 | 4.8 | 12.9 | 0.00 | 0.00 | 0.00 | 28 | 1006.9 |
| 20260504184526 | 25 | 338 | 6.4 | 11.3 | 0.00 | 0.00 | 0.00 | 28 | 1007.0 |
| 20260504184045 | 25 | 343 | 3.2 | 6.4 | 0.00 | 0.00 | 0.00 | 28 | 1006.9 |
| 20260504183542 | 25 | 332 | 6.4 | 9.7 | 0.00 | 0.00 | 0.00 | 27 | 1003.9 |
| 20260504183021 | 25 | 301 | 3.2 | 9.7 | 0.00 | 0.00 | 0.00 | 27 | 1003.9 |
| 20260504182519 | 25 | 301 | 3.2 | 4.8 | 0.00 | 0.00 | 0.00 | 26 | 1007.2 |
| 20260504182017 | 25 | 283 | 3.2 | 6.4 | 0.00 | 0.00 | 0.00 | 27 | 1007.2 |
| 20260504181537 | 25 | 299 | 4.8 | 9.7 | 0.00 | 0.00 | 0.00 | 28 | 1005.7 |
| 20260504181035 | 24 | 301 | 3.2 | 9.7 | 0.00 | 0.00 | 0.00 | 27 | 1007.4 |
| 20260504180533 | 23 | 289 | 4.8 | 12.9 | 0.00 | 0.00 | 0.00 | 30 | 1007.4 |
| 20260504180031 | 23 | 277 | 3.2 | 6.4 | 0.00 | 0.00 | 0.00 | 28 | 1007.4 |
| 20260504175529 | 23 | 276 | 4.8 | 9.7 | 0.00 | 0.00 | 0.00 | 30 | 1004.4 |
| 20260504175028 | 23 | 289 | 4.8 | 9.7 | 0.00 | 0.00 | 0.00 | 32 | 1006.0 |
| 20260504174526 | 22 | 281 | 4.8 | 11.3 | 0.00 | 0.00 | 0.00 | 34 | 1007.5 |
| 20260504174024 | 22 | 279 | 4.8 | 4.8 | 0.00 | 0.00 | 0.00 | 33 | 1006.2 |
| 20260504173522 | 22 | 279 | 4.8 | 9.7 | 0.00 | 0.00 | 0.00 | 33 | 1006.1 |
| 20260504173021 | 22 | 285 | 6.4 | 11.3 | 0.00 | 0.00 | 0.00 | 34 | 1007.5 |
| 20260504172519 | 22 | 280 | 6.4 | 11.3 | 0.00 | 0.00 | 0.00 | 35 | 1007.5 |
| 20260504172017 | 22 | 288 | 4.8 | 11.3 | 0.00 | 0.00 | 0.00 | 35 | 1007.5 |
| 20260504171516 | 22 | 270 | 6.4 | 11.3 | 0.00 | 0.00 | 0.00 | 35 | 1007.0 |
| 20260504171035 | 22 | 281 | 6.4 | 11.3 | 0.00 | 0.00 | 0.00 | 35 | 1006.0 |
| 20260504170533 | 22 | 284 | 4.8 | 9.7 | 0.00 | 0.00 | 0.00 | 35 | 1007.6 |
| 20260504151034 | 16 | 142 | 1.6 | 4.8 | 0.00 | 0.00 | 0.00 | 37 | 1007.7 |
| 20260504150532 | 16 | 155 | 1.6 | 4.8 | 0.00 | 0.00 | 0.00 | 37 | 1007.7 |
| 20260504141034 | 13 | 0.0 | 0.0 | 0.00 | 0.00 | 0.00 | 40 | 1008.1 | |
| 20260504140532 | 13 | 234 | 1.6 | 4.8 | 0.00 | 0.00 | 0.00 | 41 | 1008.0 |
| 20260504130531 | 8 | 17 | 0.0 | 3.2 | 0.00 | 0.00 | 0.00 | 47 | 1007.6 |
| 20260504110531 | 6 | 90 | 4.8 | 6.4 | 0.00 | 0.00 | 0.00 | 54 | 1007.1 |
| 20260504100532 | 7 | 74 | 6.4 | 11.3 | 0.00 | 0.00 | 0.00 | 48 | 1007.0 |
| 20260504081516 | 10 | 86 | 3.2 | 6.4 | 0.00 | 0.00 | 0.00 | 39 | 1007.4 |
| 20260504081034 | 10 | 80 | 6.4 | 11.3 | 0.00 | 0.00 | 0.00 | 39 | 1007.4 |
| 20260504080532 | 10 | 62 | 3.2 | 4.8 | 0.00 | 0.00 | 0.00 | 39 | 1007.4 |
| 20260504050524 | 11 | 71 | 6.4 | 11.3 | 0.00 | 0.00 | 0.00 | 38 | 1008.2 |
| 20260504050022 | 11 | 80 | 4.8 | 9.7 | 0.00 | 0.00 | 0.00 | 39 | 1008.2 |
| 20260504045520 | 11 | 88 | 4.8 | 6.4 | 0.00 | 0.00 | 0.00 | 37 | 1008.3 |
| 20260504045019 | 12 | 93 | 3.2 | 6.4 | 0.00 | 0.00 | 0.00 | 35 | 1008.1 |
| 20260504044517 | 12 | 95 | 3.2 | 6.4 | 0.00 | 0.00 | 0.00 | 33 | 1008.3 |
| 20260504044015 | 12 | 81 | 4.8 | 11.3 | 0.00 | 0.00 | 0.00 | 32 | 1008.3 |
| 20260504043534 | 12 | 73 | 6.4 | 12.9 | 0.00 | 0.00 | 0.00 | 32 | 1008.2 |
| 20260504043033 | 12 | 72 | 8.0 | 12.9 | 0.00 | 0.00 | 0.00 | 32 | 1008.2 |
| 20260504042531 | 12 | 72 | 9.7 | 14.5 | 0.00 | 0.00 | 0.00 | 33 | 1008.2 |
| 20260504042029 | 12 | 72 | 4.8 | 9.7 | 0.00 | 0.00 | 0.00 | 35 | 1008.3 |
| 20260504041608 | 13 | 70 | 4.8 | 6.4 | 0.00 | 0.00 | 0.00 | 33 | 1008.3 |
| 20260504041026 | 13 | 70 | 3.2 | 4.8 | 0.00 | 0.00 | 0.00 | 31 | 1008.3 |
| 20260504040524 | 14 | 76 | 3.2 | 9.7 | 0.00 | 0.00 | 0.00 | 30 | 1008.3 |
| 20260504040023 | 14 | 51 | 4.8 | 11.3 | 0.00 | 0.00 | 0.00 | 27 | 1008.3 |
| 20260504035520 | 14 | 1 | 3.2 | 6.4 | 0.00 | 0.00 | 0.00 | 28 | 1008.2 |
| 20260504035018 | 14 | 26 | 6.4 | 12.9 | 0.00 | 0.00 | 0.00 | 26 | 1008.3 |
| 20260504034517 | 15 | 70 | 11.3 | 17.7 | 0.00 | 0.00 | 0.00 | 26 | 1008.2 |
| 20260504034035 | 15 | 70 | 12.9 | 20.9 | 0.00 | 0.00 | 0.00 | 26 | 1008.0 |
| 20260504033533 | 15 | 73 | 14.5 | 20.9 | 0.00 | 0.00 | 0.00 | 26 | 1008.0 |
| 20260504033031 | 15 | 73 | 12.9 | 20.9 | 0.00 | 0.00 | 0.00 | 26 | 1008.1 |
| 20260504032530 | 15 | 73 | 12.9 | 22.5 | 0.00 | 0.00 | 0.00 | 26 | 1008.1 |
| 20260504032028 | 15 | 75 | 11.3 | 20.9 | 0.00 | 0.00 | 0.00 | 26 | 1008.2 |
| 20260504031526 | 15 | 73 | 12.9 | 20.9 | 0.00 | 0.00 | 0.00 | 26 | 1008.1 |
| 20260504031025 | 15 | 69 | 12.9 | 22.5 | 0.00 | 0.00 | 0.00 | 27 | 1008.0 |
| 20260504030523 | 15 | 74 | 12.9 | 20.9 | 0.00 | 0.00 | 0.00 | 28 | 1008.0 |
| 20260504030021 | 15 | 73 | 11.3 | 17.7 | 0.00 | 0.00 | 0.00 | 29 | 1008.0 |
| 20260504025520 | 15 | 80 | 11.3 | 16.1 | 0.00 | 0.00 | 0.00 | 30 | 1007.9 |
| 20260504025018 | 15 | 84 | 11.3 | 20.9 | 0.00 | 0.00 | 0.00 | 29 | 1008.0 |
| 20260504024516 | 16 | 69 | 12.9 | 22.5 | 0.00 | 0.00 | 0.00 | 29 | 1008.1 |
| 20260504024035 | 16 | 71 | 12.9 | 22.5 | 0.00 | 0.00 | 0.00 | 29 | 1008.0 |
| 20260504023533 | 16 | 78 | 12.9 | 22.5 | 0.00 | 0.00 | 0.00 | 29 | 1008.0 |